﻿_id,recvTime,fiwareServicePath,entityType,entityId,LAeq,LAeq_d,LAeq_den,LAeq_e,LAeq_n,dateObserved
1,2020-11-18T13:40:52.283Z,/sonometros,NoiseLevelObserved,T248652-daily,62.4,64.4,63.7,58.7,51.9,2020-11-17
2,2020-11-19T00:00:44.541Z,/sonometros,NoiseLevelObserved,T248652-daily,58.9,60.5,61.3,59.7,51.3,2020-11-18
3,2020-11-20T00:00:21.45Z,/sonometros,NoiseLevelObserved,T248652-daily,59.3,60.6,62.5,60.9,53.7,2020-11-19
4,2020-11-21T00:00:22.909Z,/sonometros,NoiseLevelObserved,T248652-daily,59.4,60.4,62.7,62.4,53.7,2020-11-20
5,2020-11-22T00:02:25.468Z,/sonometros,NoiseLevelObserved,T248652-daily,58.9,60.2,62.0,60.3,53.1,2020-11-21
6,2020-11-23T00:00:27.953Z,/sonometros,NoiseLevelObserved,T248652-daily,56.9,58.2,60.8,56.5,53.3,2020-11-22
7,2020-11-24T00:00:30.534Z,/sonometros,NoiseLevelObserved,T248652-daily,58.2,59.9,60.9,56.6,52.1,2020-11-23
8,2020-11-25T00:00:31.652Z,/sonometros,NoiseLevelObserved,T248652-daily,58.3,59.8,61.0,58.5,52.0,2020-11-24
9,2020-11-26T00:00:34.416Z,/sonometros,NoiseLevelObserved,T248652-daily,58.5,59.9,61.5,59.2,52.8,2020-11-25
10,2020-09-18 12:40:17.154,/sonometros,NoiseLevelObserved,T248652-daily,58.9,60.1,61.9,61.7,52.3,2020-09-17
11,2020-09-19 00:00:23.944,/sonometros,NoiseLevelObserved,T248652-daily,59.9,60.2,64.7,63.7,57.1,2020-09-18
12,2020-09-20 00:00:24.942,/sonometros,NoiseLevelObserved,T248652-daily,58.9,58.5,64.3,63.8,56.9,2020-09-19
13,2020-09-21 00:00:28.400,/sonometros,NoiseLevelObserved,T248652-daily,57.1,57,63,58.9,56.5,2020-09-20
14,2020-09-22 00:00:30.318,/sonometros,NoiseLevelObserved,T248652-daily,58.1,59.7,60.7,59.2,50.9,2020-09-21
15,2020-09-23 00:00:32.645,/sonometros,NoiseLevelObserved,T248652-daily,58.1,59.5,61,60.1,51.4,2020-09-22
16,2020-09-24 00:00:35.332,/sonometros,NoiseLevelObserved,T248652-daily,58,59.3,61,60.1,51.7,2020-09-23
17,2020-09-25 00:00:38.83,/sonometros,NoiseLevelObserved,T248652-daily,60.3,61.9,62.8,61.3,53,2020-09-24
18,2020-09-26 00:00:39.964,/sonometros,NoiseLevelObserved,T248652-daily,60.8,61.1,64.9,65.7,56.1,2020-09-25
19,2020-09-27 00:00:42.685,/sonometros,NoiseLevelObserved,T248652-daily,58.8,59,64.2,61.2,57.4,2020-09-26
20,2020-09-28 00:00:45.395,/sonometros,NoiseLevelObserved,T248652-daily,57.5,58.7,61.4,57.6,53.8,2020-09-27
21,2020-09-29 00:00:47.281,/sonometros,NoiseLevelObserved,T248652-daily,58.2,59.9,60.6,57.9,51,2020-09-28
22,2020-09-30 00:00:49.873,/sonometros,NoiseLevelObserved,T248652-daily,57.8,59.4,60.6,57.9,51.5,2020-09-29
23,2020-10-01 00:00:51.916,/sonometros,NoiseLevelObserved,T248652-daily,58.7,60.2,61.4,59.3,52.1,2020-09-30
24,2020-10-02 00:00:56.179,/sonometros,NoiseLevelObserved,T248652-daily,58.8,59.9,62.3,61.5,53.6,2020-10-01
25,2020-10-03 00:00:57.878,/sonometros,NoiseLevelObserved,T248652-daily,59.8,61.1,62.9,61.8,53.9,2020-10-02
26,2020-10-04 00:01:59.424,/sonometros,NoiseLevelObserved,T248652-daily,60.2,61.2,64.6,60.5,57.4,2020-10-03
27,2020-10-05 00:00:04.370,/sonometros,NoiseLevelObserved,T248652-daily,57.7,58.8,62.1,56.5,55.1,2020-10-04
28,2020-10-06 00:00:05.174,/sonometros,NoiseLevelObserved,T248652-daily,58.8,60.3,61.9,58.9,53.4,2020-10-05
29,2020-10-07 00:00:07.683,/sonometros,NoiseLevelObserved,T248652-daily,58.7,60.1,61.8,60.5,52.6,2020-10-06
30,2020-10-08 00:00:15.60,/sonometros,NoiseLevelObserved,T248652-daily,60.4,62.2,62.5,59.5,52.4,2020-10-07
31,2020-10-09 00:00:12.651,/sonometros,NoiseLevelObserved,T248652-daily,61.3,62.2,64.8,64.5,55.9,2020-10-08
32,2020-10-10 00:00:15.31,/sonometros,NoiseLevelObserved,T248652-daily,59.1,59.2,64.5,62.6,57.5,2020-10-09
33,2020-10-11 00:00:16.944,/sonometros,NoiseLevelObserved,T248652-daily,58.7,59.1,63.7,61.7,56.5,2020-10-10
34,2020-10-12 00:00:19.821,/sonometros,NoiseLevelObserved,T248652-daily,56.8,56.8,62.3,59.8,55.5,2020-10-11
35,2020-10-13 00:00:20.88,/sonometros,NoiseLevelObserved,T248652-daily,56.1,57.4,59.2,57.9,50.2,2020-10-12
36,2020-10-14 00:00:23.421,/sonometros,NoiseLevelObserved,T248652-daily,57.6,59,60.6,58.9,51.6,2020-10-13
37,2020-10-15 00:00:25.532,/sonometros,NoiseLevelObserved,T248652-daily,58.3,59.7,61.5,59.5,52.8,2020-10-14
38,2020-10-16 00:00:27.143,/sonometros,NoiseLevelObserved,T248652-daily,59,60.7,61.8,59.4,53.1,2020-10-15
39,2020-10-17 00:00:29.137,/sonometros,NoiseLevelObserved,T248652-daily,59.5,60.5,63.3,62.4,54.8,2020-10-16
40,2020-10-18 00:00:31.404,/sonometros,NoiseLevelObserved,T248652-daily,59.3,60.1,63.4,62.2,55.3,2020-10-17
41,2020-10-19 00:00:34.80,/sonometros,NoiseLevelObserved,T248652-daily,57.6,58.7,61.9,57.3,54.6,2020-10-18
42,2020-10-20 00:00:35.962,/sonometros,NoiseLevelObserved,T248652-daily,58.7,60.2,61.3,59.6,51.7,2020-10-19
43,2020-10-21 00:00:38.101,/sonometros,NoiseLevelObserved,T248652-daily,59.1,60.9,61.2,58.1,51.1,2020-10-20
44,2020-10-22 00:00:40.872,/sonometros,NoiseLevelObserved,T248652-daily,59.3,60.9,62,59.4,52.8,2020-10-21
45,2020-10-23 00:00:43.120,/sonometros,NoiseLevelObserved,T248652-daily,58.9,60.2,62.3,59.8,54,2020-10-22
46,2020-10-24 00:00:45.819,/sonometros,NoiseLevelObserved,T248652-daily,60,60.8,64.3,62.9,56.4,2020-10-23
47,2020-10-25 00:00:47.953,/sonometros,NoiseLevelObserved,T248652-daily,59.3,60,64.2,60.9,57.1,2020-10-24
48,2020-10-26 00:00:50.545,/sonometros,NoiseLevelObserved,T248652-daily,56.8,58.2,61,56.2,53.3,2020-10-25
49,2020-10-27 00:00:52.620,/sonometros,NoiseLevelObserved,T248652-daily,57.6,59.3,60.4,56.6,51.6,2020-10-26
50,2020-10-28 00:00:54.498,/sonometros,NoiseLevelObserved,T248652-daily,60.6,62.6,62.1,55.3,51.4,2020-10-27
51,2020-10-29 00:00:57.0,/sonometros,NoiseLevelObserved,T248652-daily,57.9,59.2,61.5,57.2,53.7,2020-10-28
52,2020-10-30 00:00:59.223,/sonometros,NoiseLevelObserved,T248652-daily,58.5,60,61.5,59.1,52.6,2020-10-29
53,2020-10-31 00:00:05.483,/sonometros,NoiseLevelObserved,T248652-daily,60.5,61.6,63.6,63.7,54.1,2020-10-30
54,2020-11-01 00:00:05.297,/sonometros,NoiseLevelObserved,T248652-daily,58.5,59.8,61.8,60.2,53,2020-10-31
55,2020-11-02 00:00:09.656,/sonometros,NoiseLevelObserved,T248652-daily,56.7,57.9,60.4,57.1,52.6,2020-11-01
56,2020-11-03 00:00:08.807,/sonometros,NoiseLevelObserved,T248652-daily,58.6,60.5,60.5,56.4,50.1,2020-11-02
57,2020-11-04 00:00:11.727,/sonometros,NoiseLevelObserved,T248652-daily,59.4,61.2,61.7,57,52.4,2020-11-03
58,2020-11-05 00:00:17.433,/sonometros,NoiseLevelObserved,T248652-daily,58.4,59.2,63.1,59.6,55.9,2020-11-04
59,2020-11-06 00:00:16.605,/sonometros,NoiseLevelObserved,T248652-daily,62.1,63.3,66.6,56.9,59.8,2020-11-05
60,2020-11-07 00:00:18.86,/sonometros,NoiseLevelObserved,T248652-daily,59.6,61,62.5,61,53.4,2020-11-06
61,2020-11-08 00:00:21.119,/sonometros,NoiseLevelObserved,T248652-daily,60.3,61.5,64.2,60.9,56.5,2020-11-07
62,2020-11-09 00:00:22.45,/sonometros,NoiseLevelObserved,T248652-daily,56.9,58.3,59.7,58.8,50,2020-11-08
63,2020-11-10 00:00:23.377,/sonometros,NoiseLevelObserved,T248652-daily,59.5,61.3,61.7,58.7,51.8,2020-11-09
64,2020-11-11 00:00:26.142,/sonometros,NoiseLevelObserved,T248652-daily,58.2,59.7,61.3,57.3,52.9,2020-11-10
65,2020-11-12 00:00:27.926,/sonometros,NoiseLevelObserved,T248652-daily,58.4,59.7,61.2,60.1,51.9,2020-11-11
66,2020-11-13 00:00:30.170,/sonometros,NoiseLevelObserved,T248652-daily,59.5,60.4,64.1,60.2,56.9,2020-11-12
67,2020-11-14 00:00:32.718,/sonometros,NoiseLevelObserved,T248652-daily,60.6,61.5,64.3,63.8,55.7,2020-11-13
68,2020-11-15 00:00:35.300,/sonometros,NoiseLevelObserved,T248652-daily,58.4,59.5,61.7,60.7,52.8,2020-11-14
69,2020-11-16 00:00:38.217,/sonometros,NoiseLevelObserved,T248652-daily,56.8,58,61,56.7,53.6,2020-11-15
70,2020-11-17 00:00:39.761,/sonometros,NoiseLevelObserved,T248652-daily,59,61,60.7,56,50.1,2020-11-16
71,2020-11-27T00:00:35.733Z,/sonometros,NoiseLevelObserved,T248652-daily,59.8,60.4,63.9,64.0,55.4,2020-11-26
72,2020-11-28T00:00:38.382Z,/sonometros,NoiseLevelObserved,T248652-daily,65.5,67.7,66.5,58.3,54.1,2020-11-27
73,2020-11-29T00:00:40.243Z,/sonometros,NoiseLevelObserved,T248652-daily,60.1,61.6,63.1,60.6,54.4,2020-11-28
74,2020-11-30T00:00:43.174Z,/sonometros,NoiseLevelObserved,T248652-daily,57.3,58.4,61.5,57.0,54.2,2020-11-29
75,2020-12-01T00:00:45.6Z,/sonometros,NoiseLevelObserved,T248652-daily,58.8,60.3,61.9,57.3,53.8,2020-11-30
76,2020-12-02T00:00:48.20Z,/sonometros,NoiseLevelObserved,T248652-daily,58.1,59.7,61.0,58.0,52.1,2020-12-01
77,2020-12-03T00:00:49.851Z,/sonometros,NoiseLevelObserved,T248652-daily,57.4,59.0,60.6,57.0,52.2,2020-12-02
78,2020-12-04T00:00:51.222Z,/sonometros,NoiseLevelObserved,T248652-daily,58.4,59.7,62.1,58.6,54.2,2020-12-03
79,2020-12-05T00:00:54.950Z,/sonometros,NoiseLevelObserved,T248652-daily,58.6,59.8,62.0,60.9,53.3,2020-12-04
80,2020-12-06T00:01:00.680Z,/sonometros,NoiseLevelObserved,T248652-daily,62.4,64.4,63.8,58.4,52.8,2020-12-05
81,2020-12-07T00:00:59.185Z,/sonometros,NoiseLevelObserved,T248652-daily,55.7,56.5,60.5,56.9,53.4,2020-12-06
82,2020-12-08T00:00:00.362Z,/sonometros,NoiseLevelObserved,T248652-daily,60.0,61.8,62.3,59.2,52.4,2020-12-07
83,2020-12-09T00:00:17.473Z,/sonometros,NoiseLevelObserved,T248652-daily,56.9,58.3,60.4,55.5,52.7,2020-12-08
84,2020-12-10T00:00:07.546Z,/sonometros,NoiseLevelObserved,T248652-daily,58.3,60.1,60.8,56.3,51.7,2020-12-09
85,2020-12-11T00:00:07.119Z,/sonometros,NoiseLevelObserved,T248652-daily,58.4,60.0,61.1,58.6,51.9,2020-12-10
86,2020-12-12T00:00:13.503Z,/sonometros,NoiseLevelObserved,T248652-daily,60.4,61.0,63.9,65.1,54.2,2020-12-11
87,2020-12-13T00:00:15.320Z,/sonometros,NoiseLevelObserved,T248652-daily,59.3,60.7,62.5,60.6,53.8,2020-12-12
88,2020-12-14T00:00:17.131Z,/sonometros,NoiseLevelObserved,T248652-daily,56.4,57.2,61.0,57.9,53.7,2020-12-13
89,2020-12-15T00:00:18.493Z,/sonometros,NoiseLevelObserved,T248652-daily,58.4,60.0,61.1,57.5,52.3,2020-12-14
90,2020-12-16T00:00:21.929Z,/sonometros,NoiseLevelObserved,T248652-daily,57.9,59.5,60.7,57.2,51.8,2020-12-15
91,2020-12-17T00:00:22.312Z,/sonometros,NoiseLevelObserved,T248652-daily,58.3,59.9,61.0,57.5,52.2,2020-12-16
92,2020-12-18T00:00:24.426Z,/sonometros,NoiseLevelObserved,T248652-daily,58.9,60.3,62.0,59.6,53.4,2020-12-17
93,2020-12-19T00:00:27.611Z,/sonometros,NoiseLevelObserved,T248652-daily,60.3,61.2,64.0,63.1,55.6,2020-12-18
94,2020-12-20T00:00:29.505Z,/sonometros,NoiseLevelObserved,T248652-daily,59.4,60.4,63.0,62.1,54.5,2020-12-19
95,2020-12-21T00:00:31.181Z,/sonometros,NoiseLevelObserved,T248652-daily,57.2,58.9,59.4,57.6,48.9,2020-12-20
96,2020-12-22T00:00:34.474Z,/sonometros,NoiseLevelObserved,T248652-daily,59.3,61.0,61.9,57.6,53.0,2020-12-21
97,2020-12-23T00:00:35.643Z,/sonometros,NoiseLevelObserved,T248652-daily,59.9,61.4,62.5,60.7,52.9,2020-12-22
98,2020-12-24T00:00:39.106Z,/sonometros,NoiseLevelObserved,T248652-daily,59.5,60.7,62.8,61.9,53.8,2020-12-23
99,2020-12-25T00:00:40.550Z,/sonometros,NoiseLevelObserved,T248652-daily,62.1,64.2,63.6,50.4,53.3,2020-12-24
100,2020-12-26T00:00:41.932Z,/sonometros,NoiseLevelObserved,T248652-daily,58.6,60.4,60.5,57.3,50.2,2020-12-25
101,2020-12-27T00:00:44.106Z,/sonometros,NoiseLevelObserved,T248652-daily,57.6,58.7,60.9,60.2,51.9,2020-12-26
102,2020-12-28T00:00:46.543Z,/sonometros,NoiseLevelObserved,T248652-daily,55.8,57.1,59.0,57.7,50.2,2020-12-27
103,2020-12-29T00:00:48.631Z,/sonometros,NoiseLevelObserved,T248652-daily,63.0,65.0,64.2,57.9,52.9,2020-12-28
104,2020-12-30T00:00:50.102Z,/sonometros,NoiseLevelObserved,T248652-daily,58.6,60.1,61.6,59.1,52.7,2020-12-29
105,2020-12-31T00:00:52.562Z,/sonometros,NoiseLevelObserved,T248652-daily,59.3,60.6,62.7,60.6,54.3,2020-12-30
106,2021-01-01T00:00:54.479Z,/sonometros,NoiseLevelObserved,T248652-daily,58.5,59.8,62.5,57.0,55.2,2020-12-31
107,2021-01-02T00:00:56.298Z,/sonometros,NoiseLevelObserved,T248652-daily,59.4,58.6,66.6,56.8,60.8,2021-01-01
108,2021-01-03T00:00:58.623Z,/sonometros,NoiseLevelObserved,T248652-daily,57.1,58.3,60.6,57.7,52.6,2021-01-02
109,2021-01-04T00:00:04.532Z,/sonometros,NoiseLevelObserved,T248652-daily,55.3,56.7,58.1,56.0,49.0,2021-01-03
110,2021-01-05T00:01:03.686Z,/sonometros,NoiseLevelObserved,T248652-daily,59.5,61.3,61.7,56.2,52.4,2021-01-04
111,2021-01-06T00:00:07.517Z,/sonometros,NoiseLevelObserved,T248652-daily,57.9,59.4,60.7,58.3,51.7,2021-01-05
112,2021-01-07T00:00:08.40Z,/sonometros,NoiseLevelObserved,T248652-daily,55.8,57.3,58.4,57.3,48.5,2021-01-06
113,2021-01-08T00:00:09.819Z,/sonometros,NoiseLevelObserved,T248652-daily,58.0,59.6,61.0,57.8,52.4,2021-01-07
114,2021-01-09T00:00:13.516Z,/sonometros,NoiseLevelObserved,T248652-daily,59.8,61.6,62.0,58.3,52.3,2021-01-08
115,2021-01-10T00:00:13.791Z,/sonometros,NoiseLevelObserved,T248652-daily,60.7,62.7,62.2,58.0,50.9,2021-01-09
116,2021-01-11T00:00:15.776Z,/sonometros,NoiseLevelObserved,T248652-daily,56.7,58.6,58.0,55.7,45.0,2021-01-10
117,2021-01-12T00:00:18.37Z,/sonometros,NoiseLevelObserved,T248652-daily,57.9,59.8,59.7,54.8,49.5,2021-01-11
118,2021-01-13T00:00:19.505Z,/sonometros,NoiseLevelObserved,T248652-daily,57.5,59.3,59.9,55.5,50.7,2021-01-12
119,2021-01-14T00:00:21.452Z,/sonometros,NoiseLevelObserved,T248652-daily,61.8,64.0,62.7,55.6,49.3,2021-01-13
120,2021-01-15T00:00:22.377Z,/sonometros,NoiseLevelObserved,T248652-daily,58.1,60.0,59.7,55.7,48.8,2021-01-14
121,2021-01-16T00:00:24.772Z,/sonometros,NoiseLevelObserved,T248652-daily,59.4,61.4,60.7,56.6,48.5,2021-01-15
122,2021-01-17T00:00:27.715Z,/sonometros,NoiseLevelObserved,T248652-daily,57.0,58.9,59.1,55.7,48.8,2021-01-16
123,2021-01-18T00:00:28.280Z,/sonometros,NoiseLevelObserved,T248652-daily,54.8,56.6,56.2,54.9,43.4,2021-01-17
124,2021-01-19T00:00:31.625Z,/sonometros,NoiseLevelObserved,T248652-daily,58.1,60.0,59.4,55.9,47.4,2021-01-18
125,2021-01-20T00:00:31.730Z,/sonometros,NoiseLevelObserved,T248652-daily,57.9,59.6,59.9,58.3,49.0,2021-01-19
126,2021-01-21T00:00:33.745Z,/sonometros,NoiseLevelObserved,T248652-daily,58.5,60.4,60.7,56.4,51.1,2021-01-20
127,2021-01-22T00:00:36.816Z,/sonometros,NoiseLevelObserved,T248652-daily,57.5,59.5,59.0,54.2,47.9,2021-01-21
128,2021-01-23T00:00:38.384Z,/sonometros,NoiseLevelObserved,T248652-daily,60.2,62.4,60.8,55.9,44.6,2021-01-22
129,2021-01-24T00:00:40.757Z,/sonometros,NoiseLevelObserved,T248652-daily,56.0,58.0,57.6,54.5,45.8,2021-01-23
130,2021-01-25T00:00:42.862Z,/sonometros,NoiseLevelObserved,T248652-daily,54.4,55.8,57.7,54.6,49.5,2021-01-24
131,2021-01-26T00:00:44.688Z,/sonometros,NoiseLevelObserved,T248652-daily,57.7,59.5,59.8,56.4,49.8,2021-01-25
132,2021-01-27T00:00:47.663Z,/sonometros,NoiseLevelObserved,T248652-daily,58.8,60.9,59.9,55.2,47.3,2021-01-26
133,2021-01-28T00:00:49.470Z,/sonometros,NoiseLevelObserved,T248652-daily,57.1,59.1,58.6,54.6,47.1,2021-01-27
134,2021-01-29T00:00:03.656Z,/sonometros,NoiseLevelObserved,T248652-daily,57.9,59.9,59.2,55.0,47.2,2021-01-28
135,2021-01-30T00:00:33.540Z,/sonometros,NoiseLevelObserved,T248652-daily,56.8,58.6,58.7,55.6,48.1,2021-01-29
136,2021-01-31T00:00:07.936Z,/sonometros,NoiseLevelObserved,T248652-daily,56.5,58.5,57.8,54.7,45.0,2021-01-30
137,2021-02-01T00:00:08.232Z,/sonometros,NoiseLevelObserved,T248652-daily,55.3,57.3,56.5,54.2,42.5,2021-01-31
138,2021-02-02T00:00:25.199Z,/sonometros,NoiseLevelObserved,T248652-daily,57.2,59.1,59.4,52.6,50.2,2021-02-01
139,2021-02-03T00:00:13.803Z,/sonometros,NoiseLevelObserved,T248652-daily,57.1,59.1,58.5,53.9,47.0,2021-02-02
140,2021-02-04T00:00:14.355Z,/sonometros,NoiseLevelObserved,T248652-daily,61.5,63.7,62.2,54.2,48.0,2021-02-03
141,2021-02-05T00:00:16.346Z,/sonometros,NoiseLevelObserved,T248652-daily,59.2,61.1,60.8,55.6,50.4,2021-02-04
142,2021-02-06T00:00:20.452Z,/sonometros,NoiseLevelObserved,T248652-daily,58.4,60.1,60.8,56.6,51.6,2021-02-05
143,2021-02-07T00:00:21.852Z,/sonometros,NoiseLevelObserved,T248652-daily,56.6,58.4,58.3,56.1,46.8,2021-02-06
144,2021-02-08T00:00:32.160Z,/sonometros,NoiseLevelObserved,T248652-daily,54.8,56.7,56.2,53.7,44.0,2021-02-07
145,2021-02-09T00:00:23.770Z,/sonometros,NoiseLevelObserved,T248652-daily,57.6,59.5,59.3,56.0,48.2,2021-02-08
146,2021-02-10T00:00:26.268Z,/sonometros,NoiseLevelObserved,T248652-daily,57.0,59.0,58.5,54.6,47.2,2021-02-09
147,2021-02-11T00:00:28.314Z,/sonometros,NoiseLevelObserved,T248652-daily,57.5,59.1,59.6,58.5,48.9,2021-02-10
148,2021-02-12T00:00:32.175Z,/sonometros,NoiseLevelObserved,T248652-daily,59.1,61.2,60.4,54.8,48.8,2021-02-11
149,2021-02-13T00:00:33.306Z,/sonometros,NoiseLevelObserved,T248652-daily,57.6,59.5,59.4,56.2,48.7,2021-02-12
150,2021-02-14T00:00:34.742Z,/sonometros,NoiseLevelObserved,T248652-daily,57.8,59.6,59.2,57.6,46.6,2021-02-13
151,2021-02-15T00:00:36.773Z,/sonometros,NoiseLevelObserved,T248652-daily,57.3,58.9,60.1,56.3,51.4,2021-02-14
152,2021-02-16T00:00:39.347Z,/sonometros,NoiseLevelObserved,T248652-daily,58.2,60.0,60.5,54.8,51.5,2021-02-15
153,2021-02-17T00:00:42.584Z,/sonometros,NoiseLevelObserved,T248652-daily,58.4,60.4,59.8,55.6,48.0,2021-02-16
154,2021-03-23T00:00:36.437Z,/sonometros,NoiseLevelObserved,T248652-daily,60.3,61.5,61.8,57.1,52.7,2021-03-22
155,2021-03-24T00:00:38.728Z,/sonometros,NoiseLevelObserved,T248652-daily,58.6,60.4,60.8,56.6,51.3,2021-03-23
156,2021-03-25T00:00:40.779Z,/sonometros,NoiseLevelObserved,T248652-daily,58.7,60.5,60.7,56.6,50.8,2021-03-24
157,2021-03-26T00:00:42.975Z,/sonometros,NoiseLevelObserved,T248652-daily,58.7,60.5,61.0,56.2,51.8,2021-03-25
158,2021-03-27T00:00:45.124Z,/sonometros,NoiseLevelObserved,T248652-daily,60.0,61.5,62.5,61.2,52.6,2021-03-26
159,2021-03-28T00:00:47.209Z,/sonometros,NoiseLevelObserved,T248652-daily,59.1,61.0,61.0,56.7,50.8,2021-03-27
160,2021-03-29T00:00:49.493Z,/sonometros,NoiseLevelObserved,T248652-daily,57.9,59.3,59.8,59.5,48.1,2021-03-28
161,2021-03-30T00:00:52.877Z,/sonometros,NoiseLevelObserved,T248652-daily,61.8,64.0,62.6,56.3,48.5,2021-03-29
162,2021-03-31T00:00:53.810Z,/sonometros,NoiseLevelObserved,T248652-daily,58.8,60.7,60.2,56.9,48.3,2021-03-30
163,2021-04-01T00:00:56.51Z,/sonometros,NoiseLevelObserved,T248652-daily,59.2,61.1,60.5,57.5,48.3,2021-03-31
164,2021-04-02T00:00:58.358Z,/sonometros,NoiseLevelObserved,T248652-daily,58.8,60.8,60.1,57.0,47.6,2021-04-01
165,2021-04-03T00:00:02.449Z,/sonometros,NoiseLevelObserved,T248652-daily,58.7,60.7,60.0,56.9,47.3,2021-04-02
166,2021-04-04T00:00:05.798Z,/sonometros,NoiseLevelObserved,T248652-daily,58.1,60.1,59.3,56.3,46.4,2021-04-03
167,2021-04-05T00:00:05.896Z,/sonometros,NoiseLevelObserved,T248652-daily,58.6,60.5,60.4,57.2,49.6,2021-04-04
168,2021-04-06T00:00:23.843Z,/sonometros,NoiseLevelObserved,T248652-daily,58.9,60.9,60.4,55.2,49.5,2021-04-05
169,2021-04-07T00:00:09.845Z,/sonometros,NoiseLevelObserved,T248652-daily,58.4,60.4,59.8,56.3,47.9,2021-04-06
170,2021-04-08T00:00:20.514Z,/sonometros,NoiseLevelObserved,T248652-daily,59.2,61.0,61.1,58.2,50.5,2021-04-07
171,2021-04-09T00:00:16.391Z,/sonometros,NoiseLevelObserved,T248652-daily,62.5,64.7,63.2,57.4,48.1,2021-04-08
172,2021-04-10T00:00:25.185Z,/sonometros,NoiseLevelObserved,T248652-daily,59.1,61.0,60.3,57.2,47.9,2021-04-09
173,2021-04-11T00:00:26.26Z,/sonometros,NoiseLevelObserved,T248652-daily,59.7,61.6,60.8,58.7,47.1,2021-04-10
174,2021-04-12T00:00:21.654Z,/sonometros,NoiseLevelObserved,T248652-daily,56.9,58.5,59.5,57.7,49.9,2021-04-11
175,2021-04-13T00:00:23.851Z,/sonometros,NoiseLevelObserved,T248652-daily,59.0,60.9,60.5,57.3,49.0,2021-04-12
176,2021-04-14T00:00:24.946Z,/sonometros,NoiseLevelObserved,T248652-daily,58.9,60.9,60.1,55.9,47.8,2021-04-13
177,2021-04-15T00:00:28.365Z,/sonometros,NoiseLevelObserved,T248652-daily,58.0,59.8,59.6,56.8,48.2,2021-04-14
178,2021-04-16T00:00:29.315Z,/sonometros,NoiseLevelObserved,T248652-daily,58.7,60.1,62.7,55.6,55.4,2021-04-15
179,2021-04-17T00:00:31.474Z,/sonometros,NoiseLevelObserved,T248652-daily,59.5,61.4,61.0,57.7,49.7,2021-04-16
180,2021-04-18T00:00:33.327Z,/sonometros,NoiseLevelObserved,T248652-daily,59.1,61.1,60.4,56.8,48.2,2021-04-17
181,2021-04-19T01:38:43.33Z,/sonometros,NoiseLevelObserved,T248652-daily,57.7,59.6,59.6,56.4,48.9,2021-04-18
182,2021-04-20T00:00:39.519Z,/sonometros,NoiseLevelObserved,T248652-daily,58.5,60.5,59.9,55.0,48.7,2021-04-19
183,2021-04-21T00:00:40.122Z,/sonometros,NoiseLevelObserved,T248652-daily,58.2,60.1,59.9,55.1,49.6,2021-04-20
184,2021-04-22T00:00:43.40Z,/sonometros,NoiseLevelObserved,T248652-daily,58.9,60.8,60.5,56.3,49.8,2021-04-21
185,2021-04-23T00:00:45.414Z,/sonometros,NoiseLevelObserved,T248652-daily,60.1,62.0,62.2,56.9,52.7,2021-04-22
186,2021-04-24T00:00:46.760Z,/sonometros,NoiseLevelObserved,T248652-daily,60.6,62.5,62.1,58.0,50.8,2021-04-23
187,2021-04-25T00:00:48.847Z,/sonometros,NoiseLevelObserved,T248652-daily,58.7,60.6,60.3,57.0,49.1,2021-04-24
188,2021-04-26T00:00:51.118Z,/sonometros,NoiseLevelObserved,T248652-daily,59.9,61.6,62.0,60.2,51.6,2021-04-25
189,2021-04-27T00:00:53.452Z,/sonometros,NoiseLevelObserved,T248652-daily,58.8,60.0,62.7,58.2,55.2,2021-04-26
190,2021-04-28T00:00:55.583Z,/sonometros,NoiseLevelObserved,T248652-daily,61.3,63.2,62.8,59.6,51.4,2021-04-27
191,2021-04-29T00:00:03.768Z,/sonometros,NoiseLevelObserved,T248652-daily,60.1,61.8,62.1,60.6,51.0,2021-04-28
192,2021-04-30T00:00:00.589Z,/sonometros,NoiseLevelObserved,T248652-daily,58.8,60.3,61.5,60.1,52.0,2021-04-29
193,2021-05-01T00:00:19.787Z,/sonometros,NoiseLevelObserved,T248652-daily,61.4,62.7,63.7,64.4,52.0,2021-04-30
194,2021-05-02T00:00:14.502Z,/sonometros,NoiseLevelObserved,T248652-daily,62.1,63.8,64.0,63.9,51.3,2021-05-01
195,2021-05-03T00:00:13.165Z,/sonometros,NoiseLevelObserved,T248652-daily,57.2,58.7,60.1,57.3,51.3,2021-05-02
196,2021-05-04T00:00:15.675Z,/sonometros,NoiseLevelObserved,T248652-daily,58.6,60.4,60.7,55.2,51.2,2021-05-03
197,2021-05-05T00:00:17.472Z,/sonometros,NoiseLevelObserved,T248652-daily,58.7,60.1,61.5,60.4,52.1,2021-05-04
198,2021-05-06T00:00:49.777Z,/sonometros,NoiseLevelObserved,T248652-daily,59.1,60.7,61.5,60.1,51.5,2021-05-05
199,2021-05-07T00:00:18.534Z,/sonometros,NoiseLevelObserved,T248652-daily,59.5,60.9,62.3,61.6,52.6,2021-05-06
200,2021-05-08T00:00:26.617Z,/sonometros,NoiseLevelObserved,T248652-daily,60.4,61.7,63.2,63.0,53.3,2021-05-07
201,2021-05-09T00:00:23.20Z,/sonometros,NoiseLevelObserved,T248652-daily,63.9,65.7,65.5,64.9,52.5,2021-05-08
202,2021-05-10T00:00:24.834Z,/sonometros,NoiseLevelObserved,T248652-daily,58.8,60.3,61.9,58.4,53.5,2021-05-09
203,2021-05-11T00:00:26.824Z,/sonometros,NoiseLevelObserved,T248652-daily,58.4,59.8,61.7,59.4,53.2,2021-05-10
204,2021-05-12T00:01:28.964Z,/sonometros,NoiseLevelObserved,T248652-daily,58.3,59.4,61.6,60.4,53.0,2021-05-11
205,2021-05-13T00:00:31.673Z,/sonometros,NoiseLevelObserved,T248652-daily,58.7,59.9,61.9,61.5,52.7,2021-05-12
206,2021-05-14T00:01:33.722Z,/sonometros,NoiseLevelObserved,T248652-daily,60.1,60.2,64.9,64.7,57.0,2021-05-13
207,2021-05-15T00:00:36.965Z,/sonometros,NoiseLevelObserved,T248652-daily,61.2,61.7,65.2,65.6,56.5,2021-05-14
208,2021-05-16T00:00:39.441Z,/sonometros,NoiseLevelObserved,T248652-daily,62.6,63.4,66.4,66.3,57.6,2021-05-15
209,2021-05-17T00:00:41.712Z,/sonometros,NoiseLevelObserved,T248652-daily,57.8,59.1,61.2,57.9,53.1,2021-05-16
210,2021-05-18T00:00:43.823Z,/sonometros,NoiseLevelObserved,T248652-daily,58.2,59.5,61.5,59.7,52.9,2021-05-17
211,2021-05-19T00:00:46.467Z,/sonometros,NoiseLevelObserved,T248652-daily,62.1,63.8,64.5,60.5,55.4,2021-05-18
212,2021-05-20T00:00:49.847Z,/sonometros,NoiseLevelObserved,T248652-daily,59.7,61.1,62.6,61.2,53.3,2021-05-19
213,2021-05-21T00:00:52.217Z,/sonometros,NoiseLevelObserved,T248652-daily,59.8,60.6,63.4,63.3,54.6,2021-05-20
214,2021-05-22T00:00:54.210Z,/sonometros,NoiseLevelObserved,T248652-daily,61.7,61.6,66.2,67.4,57.4,2021-05-21
215,2021-05-23T00:00:56.662Z,/sonometros,NoiseLevelObserved,T248652-daily,62.5,63.2,66.3,66.3,57.5,2021-05-22
216,2021-05-24T00:00:57.609Z,/sonometros,NoiseLevelObserved,T248652-daily,58.0,59.2,62.0,57.8,54.5,2021-05-23
217,2021-05-25T00:00:04.458Z,/sonometros,NoiseLevelObserved,T248652-daily,58.5,59.9,61.6,59.6,52.7,2021-05-24
218,2021-05-26T00:00:03.616Z,/sonometros,NoiseLevelObserved,T248652-daily,61.1,60.7,64.7,68.3,51.8,2021-05-25
219,2021-05-27T00:00:06.156Z,/sonometros,NoiseLevelObserved,T248652-daily,59.3,60.2,62.4,63.6,51.9,2021-05-26